| time (UTC) | temp C | wind direction | speed KPH | gust KPH | rain 1hr cm | rain 24hr cm | rain mn cm | humidity % | barometer mb |
| 20260505222742 | 11 | 268 | 0.0 | 4.8 | 0.00 | 1.47 | 1.45 | 63 | 1007.4 |
| 20260505221745 | 11 | 276 | 0.0 | 4.8 | 0.00 | 1.47 | 1.45 | 56 | 1007.2 |
| 20260505215643 | 11 | 291 | 0.0 | 0.0 | 0.00 | 1.47 | 1.45 | 67 | 1007.4 |
| 20260505213548 | 11 | 257 | 0.0 | 3.2 | 0.00 | 1.47 | 1.45 | 63 | 1007.2 |
| 20260505212607 | 11 | 248 | 0.0 | 3.2 | 0.00 | 1.47 | 1.45 | 67 | 1007.2 |
| 20260505210456 | 10 | 229 | 0.0 | 1.6 | 0.00 | 1.47 | 1.45 | 75 | 1007.4 |
| 20260505205507 | 10 | 249 | 0.0 | 0.0 | 0.00 | 1.47 | 1.45 | 79 | 1007.6 |
| 20260505203336 | 9 | 300 | 0.0 | 0.0 | 0.10 | 1.47 | 1.45 | 84 | 1007.6 |
| 20260505201152 | 10 | 228 | 0.0 | 0.0 | 0.00 | 1.40 | 1.40 | 77 | 1007.7 |
| 20260505200154 | 11 | 160 | 0.0 | 0.0 | 0.00 | 1.40 | 1.40 | 76 | 1007.6 |
| 20260505195137 | 10 | 266 | 0.0 | 1.6 | 0.00 | 1.40 | 1.40 | 77 | 1007.8 |
| 20260505194130 | 11 | 222 | 0.0 | 1.6 | 0.00 | 1.40 | 1.40 | 77 | 1007.9 |
| 20260505193110 | 10 | 215 | 0.0 | 0.0 | 0.00 | 1.40 | 1.40 | 82 | 1008.1 |
| 20260505192039 | 9 | 258 | 0.0 | 0.0 | 0.00 | 1.40 | 1.40 | 86 | 1008.5 |
| 20260505185920 | 8 | 264 | 0.0 | 0.0 | 0.00 | 1.40 | 1.40 | 91 | 1008.8 |
| 20260505183723 | 7 | 21 | 0.0 | 0.0 | 0.00 | 1.40 | 1.40 | 95 | 1008.9 |
| 20260505182743 | 6 | 278 | 0.0 | 0.0 | 0.13 | 1.40 | 1.40 | 93 | 1009.1 |
| 20260505181750 | 6 | 240 | 0.0 | 0.0 | 0.51 | 1.40 | 1.40 | 93 | 1008.9 |
| 20260505180727 | 6 | 239 | 0.0 | 0.0 | 0.69 | 1.30 | 1.32 | 93 | 1008.8 |
| 20260505175725 | 6 | 261 | 0.0 | 0.0 | 2.67 | 1.02 | 1.09 | 92 | 1008.7 |
| 20260505174736 | 7 | 274 | 0.0 | 0.0 | 0.15 | 0.97 | 0.97 | 92 | 1008.5 |
| 20260505173705 | 7 | 216 | 0.0 | 0.0 | 0.25 | 0.91 | 0.94 | 92 | 1008.5 |
| 20260505172703 | 7 | 255 | 0.0 | 0.0 | 0.30 | 0.89 | 0.91 | 92 | 1008.5 |
| 20260505171704 | 7 | 264 | 0.0 | 0.0 | 0.23 | 0.81 | 0.86 | 91 | 1008.4 |
| 20260505165526 | 8 | 292 | 0.0 | 0.0 | 0.00 | 0.79 | 0.79 | 89 | 1008.0 |
| 20260505163443 | 8 | 210 | 0.0 | 0.0 | 0.00 | 0.79 | 0.79 | 91 | 1007.9 |
| 20260505162409 | 7 | 151 | 0.0 | 0.0 | 0.00 | 0.79 | 0.79 | 93 | 1007.9 |
| 20260505161401 | 7 | 266 | 0.0 | 0.0 | 0.00 | 0.79 | 0.79 | 92 | 1008.1 |
| 20260505153109 | 7 | 229 | 0.0 | 0.0 | 0.00 | 0.74 | 0.76 | 93 | 1007.8 |
| 20260505150942 | 6 | 255 | 0.0 | 0.0 | 0.00 | 0.74 | 0.76 | 94 | 1007.8 |
| 20260505124813 | 6 | 241 | 0.0 | 0.0 | 0.00 | 0.36 | 0.38 | 93 | 1007.1 |
| 20260505122636 | 6 | 131 | 0.0 | 0.0 | 0.30 | 0.36 | 0.38 | 92 | 1007.2 |
| 20260505120554 | 6 | 251 | 0.0 | 0.0 | 0.33 | 0.20 | 0.23 | 92 | 1007.6 |
| 20260505114334 | 6 | 62 | 0.0 | 1.6 | 0.15 | 0.10 | 0.10 | 91 | 1007.2 |
| 20260505113311 | 6 | 198 | 0.0 | 0.0 | 0.10 | 0.08 | 0.08 | 91 | 1007.4 |
| 20260505111111 | 7 | 274 | 0.0 | 0.0 | 0.23 | 0.03 | 0.05 | 89 | 1007.5 |
| 20260505110123 | 7 | 214 | 0.0 | 0.0 | 0.00 | 0.00 | 0.00 | 88 | 1007.4 |
| 20260505101902 | 7 | 284 | 0.0 | 0.0 | 0.00 | 0.00 | 0.00 | 83 | 1007.6 |
| 20260505100834 | 7 | 293 | 0.0 | 0.0 | 0.00 | 0.00 | 0.00 | 82 | 1007.6 |
| 20260505095840 | 7 | 232 | 0.0 | 0.0 | 0.00 | 0.00 | 0.00 | 82 | 1007.7 |
| 20260505094858 | 7 | 295 | 0.0 | 0.0 | 0.00 | 0.00 | 0.00 | 83 | 1007.6 |
| 20260505092813 | 7 | 208 | 0.0 | 3.2 | 0.00 | 0.00 | 0.00 | 82 | 1007.5 |
| 20260505091816 | 7 | 92 | 0.0 | 0.0 | 0.00 | 0.00 | 0.00 | 82 | 1007.6 |
| 20260505085654 | 7 | 271 | 0.0 | 0.0 | 0.00 | 0.00 | 0.00 | 81 | 1008.1 |
| 20260505083525 | 7 | 229 | 0.0 | 0.0 | 0.00 | 0.00 | 0.00 | 79 | 1008.5 |
| 20260505082530 | 7 | 255 | 0.0 | 1.6 | 0.00 | 0.00 | 0.00 | 78 | 1008.6 |
| 20260505081500 | 7 | 224 | 0.0 | 1.6 | 0.00 | 0.00 | 0.00 | 78 | 1008.7 |
| 20260505080438 | 8 | 212 | 0.0 | 1.6 | 0.00 | 0.00 | 0.00 | 76 | 1008.8 |
| 20260505075444 | 8 | 212 | 0.0 | 4.8 | 0.00 | 0.00 | 0.00 | 75 | 1008.9 |
| 20260505073329 | 8 | 224 | 0.0 | 3.2 | 0.00 | 0.00 | 0.00 | 74 | 1008.6 |
| 20260505072336 | 8 | 220 | 0.0 | 0.0 | 0.00 | 0.00 | 0.00 | 74 | 1008.9 |
| 20260505071338 | 8 | 237 | 0.0 | 0.0 | 0.00 | 0.00 | 0.00 | 73 | 1009.0 |
| 20260505070334 | 8 | 226 | 0.0 | 0.0 | 0.00 | 0.00 | 0.00 | 73 | 1008.8 |
| 20260505064145 | 8 | 198 | 0.0 | 3.2 | 0.00 | 0.00 | 0.00 | 73 | 1009.1 |
| 20260505063128 | 8 | 231 | 0.0 | 0.0 | 0.00 | 0.00 | 0.00 | 72 | 1009.1 |
| 20260505061003 | 8 | 198 | 0.0 | 4.8 | 0.00 | 0.00 | 0.00 | 69 | 1009.0 |
| 20260505060009 | 9 | 221 | 0.0 | 4.8 | 0.00 | 0.00 | 0.00 | 67 | 1009.1 |
| 20260505054955 | 9 | 242 | 0.0 | 0.0 | 0.00 | 0.00 | 0.00 | 65 | 1009.0 |
| 20260505053928 | 9 | 249 | 0.0 | 1.6 | 0.00 | 0.00 | 0.00 | 64 | 1008.8 |
| 20260505052909 | 9 | 210 | 0.0 | 0.0 | 0.00 | 0.00 | 0.00 | 63 | 1008.7 |
| 20260505050750 | 10 | 254 | 0.0 | 1.6 | 0.00 | 0.00 | 0.00 | 59 | 1009.2 |
| 20260505041612 | 10 | 229 | 0.0 | 0.0 | 0.00 | 0.00 | 0.00 | 53 | 1008.8 |
| 20260505040626 | 10 | 141 | 0.0 | 3.2 | 0.00 | 0.00 | 0.00 | 54 | 1008.6 |
| 20260505035614 | 10 | 207 | 0.0 | 6.4 | 0.00 | 0.00 | 0.00 | 54 | 1008.5 |
| 20260505034626 | 10 | 156 | 0.0 | 3.2 | 0.00 | 0.00 | 0.00 | 54 | 1008.2 |
| 20260505033556 | 10 | 241 | 0.0 | 0.0 | 0.00 | 0.00 | 0.00 | 53 | 1008.6 |
| 20260505032617 | 10 | 265 | 0.0 | 3.2 | 0.00 | 0.00 | 0.00 | 52 | 1008.3 |
| 20260505031545 | 10 | 216 | 0.0 | 4.8 | 0.00 | 0.00 | 0.00 | 51 | 1008.1 |
| 20260505030511 | 10 | 240 | 0.0 | 4.8 | 0.00 | 0.00 | 0.00 | 50 | 1008.0 |
| 20260505025537 | 11 | 217 | 0.0 | 4.8 | 0.00 | 0.00 | 0.00 | 49 | 1007.9 |
| 20260505024559 | 11 | 223 | 0.0 | 3.2 | 0.00 | 0.00 | 0.00 | 48 | 1007.8 |
| 20260505023558 | 11 | 262 | 0.0 | 3.2 | 0.00 | 0.00 | 0.00 | 47 | 1007.9 |
| 20260505022527 | 11 | 259 | 0.0 | 6.4 | 0.00 | 0.00 | 0.00 | 46 | 1008.1 |
| 20260505021504 | 11 | 253 | 0.0 | 6.4 | 0.00 | 0.00 | 0.00 | 44 | 1008.1 |
| 20260505013048 | 12 | 282 | 0.0 | 3.2 | 0.00 | 0.00 | 0.00 | 41 | 1007.8 |
| 20260505012113 | 12 | 211 | 0.0 | 3.2 | 0.00 | 0.00 | 0.00 | 43 | 1007.7 |
| 20260505011127 | 12 | 228 | 0.0 | 0.0 | 0.00 | 0.00 | 0.00 | 42 | 1007.7 |
| 20260505010119 | 12 | 238 | 0.0 | 4.8 | 0.00 | 0.00 | 0.00 | 41 | 1007.9 |
| 20260505005057 | 13 | 220 | 0.0 | 1.6 | 0.00 | 0.00 | 0.00 | 40 | 1007.6 |
| 20260505004114 | 13 | 243 | 0.0 | 3.2 | 0.00 | 0.00 | 0.00 | 40 | 1007.8 |
| 20260505003056 | 13 | 215 | 0.0 | 4.8 | 0.00 | 0.00 | 0.00 | 38 | 1008.0 |
| 20260505002102 | 14 | 231 | 0.0 | 4.8 | 0.00 | 0.00 | 0.00 | 38 | 1008.1 |
| 20260505001055 | 14 | 255 | 0.0 | 4.8 | 0.00 | 0.00 | 0.00 | 36 | 1008.1 |
| 20260505000044 | 15 | 205 | 0.0 | 4.8 | 0.00 | 0.00 | 0.00 | 33 | 1007.9 |
| 20260504234002 | 16 | 288 | 1.6 | 8.0 | 0.00 | 0.00 | 0.00 | 31 | 1008.1 |
| 20260504231845 | 16 | 290 | 0.0 | 3.2 | 0.00 | 0.00 | 0.00 | 31 | 1007.9 |
| 20260504230836 | 16 | 262 | 0.0 | 4.8 | 0.00 | 0.00 | 0.00 | 29 | 1007.8 |